Regional Weather Roundup
Issued by NWS Upton, NY

Current Version | Previous Version | Graphics & Text | Print | Product List | Glossary Off
Versions: 1 2 3 4 5 6 7 8 9 10 11 12 13 14 15 16 17 18 19 20 21 22 23 24 25 26 27 28 29 30 31 32 33 34 35 36 37 38 39 40 41 42 43 44 45 46 47 48 49 50

000
ASUS41 KOKX 210305
RWROKX

REGIONAL WEATHER ROUNDUP
NATIONAL WEATHER SERVICE NEW YORK NY
1100 PM EDT WED AUG 20 2014

NOTE: "FAIR" INDICATES FEW OR NO CLOUDS BELOW 12,000 FEET WITH NO
SIGNIFICANT WEATHER AND/OR OBSTRUCTIONS TO VISIBILITY.

NYZ071-072-176-178-NJZ106-104-210400-
NEW YORK CITY METRO AREA


CITY           SKY/WX    TMP DP  RH WIND       PRES   REMARKS
CENTRAL PARK   MOCLDY    73  59  61 VRB3      30.04S
LAGUARDIA APRT MOCLDY    73  61  65 S9        30.01S
KENNEDY INTL   MOCLDY    71  62  73 S5        30.02S
NEWARK/LIBERTY MOCLDY    72  62  71 S5        30.01S
BRNX BOT. GARD   N/A     70  59  68 CALM      30.02S
TETERBORO      MOCLDY    73  61  65 S5        30.00S
$$

NYZ177-179-078>081-210400-
LONG ISLAND NEW YORK

CITY           SKY/WX    TMP DP  RH WIND       PRES   REMARKS
FARMINGDALE    CLEAR     69  61  75 SE3       30.02F
ISLIP          MOCLDY    68  61  78 E3        30.01F
SHIRLEY        CLEAR     63  59  87 CALM      30.03F
WESTHAMPTON    CLEAR     60  55  83 CALM      30.05S
MONTAUK POINT    N/A     62  57  83 CALM      30.05S
$$

NYZ052-065-067-210400-
HUDSON VALLEY

CITY           SKY/WX    TMP DP  RH WIND       PRES   REMARKS
WHITE PLAINS   MOCLDY    66  59  78 CALM      30.02F
NEWBURGH       MOCLDY    73  61  64 CALM      30.02S
MONTGOMERY     CLOUDY    71  58  63 S5        30.01R
POUGHKEEPSIE   CLOUDY    73  60  63 SE6       30.00R
ALBANY         CLOUDY    76  65  68 SW7       30.00R
$$

NJZ001-105-106-008-010-013-015-019>022-104-210400-
NEW JERSEY

CITY           SKY/WX    TMP DP  RH WIND       PRES   REMARKS
NEWARK/LIBERTY MOCLDY    72  62  71 S5        30.01S
TETERBORO      MOCLDY    73  61  65 S5        30.00S
CALDWELL       MOCLDY    72  57  59 CALM      30.03R
MORRISTOWN     CLOUDY    68  59  73 CALM      30.02S
SOMERVILLE     CLOUDY    71  60  68 CALM      30.00R
LINDEN         FAIR      76  64  67 CALM      30.04R
SUSSEX         CLOUDY    71  61  70 CALM      30.01S
ANDOVER          N/A     71  58  63 SW3       30.03R
TRENTON        CLOUDY    71  61  70 S7        30.01S
MILLVILLE      MOCLDY    69  64  84 CALM      30.02R
ATLANTIC CITY  PTCLDY    69  63  81 W3        30.02R
WRIGHTSTOWN    MOCLDY    67  62  84 S2        30.00R
TOMS RIVER     CLEAR     64  59  82 CALM      30.02R
BELMAR         PTCLDY    70  59  68 SE5       30.01S
$$

PAZ047>061-062-071-210400-
EASTERN PENNSYLVANIA

CITY           SKY/WX    TMP DP  RH WIND       PRES   REMARKS
PHILADELPHIA   CLOUDY    73  62  68 S6        30.02R
ALLENTOWN      LGT RAIN  76  64  66 SW6       30.01R
SCRANTON       CLOUDY    74  64  71 SW3       30.00R
$$

CTZ002-004>006-009-010-012-RIZ004-006-007-MAZ004-011-015-210400-
SOUTHERN NEW ENGLAND
 IN CT

CITY           SKY/WX    TMP DP  RH WIND       PRES   REMARKS
BRADLEY INTL   MOCLDY    69  59  70 S7        30.03S
HARTFORD       CLEAR     68  59  73 S3        30.03S
DANBURY        PTCLDY    67  59  75 SE3       30.04S
WTRBRY/OXFORD  CLEAR     64  57  77 CALM      30.06S
BRIDGEPORT     CLEAR     70  62  76 SE5       30.03S
MERIDEN        CLEAR     64  60  87 CALM      30.04S
NEW HAVEN      CLEAR     69  61  75 SE3       30.04S
CHESTER        FAIR      63  61  94 CALM      30.06S
GROTON         CLEAR     61  60  97 CALM      30.04S
WILLIMANTIC    CLEAR     64  61  90 N3        30.05S

 IN RI

CITY           SKY/WX    TMP DP  RH WIND       PRES   REMARKS
PROVIDENCE     PTCLDY    64  59  83 CALM      30.06R
BLOCK ISLAND   CLEAR     63  55  77 CALM      30.04S
WESTERLY       CLEAR     61  59  93 NE5       30.05S

 IN MA

CITY           SKY/WX    TMP DP  RH WIND       PRES   REMARKS
BOSTON         PTCLDY    65  61  87 CALM      30.06S
WORCESTER      CLEAR     66  49  54 CALM      30.08R
WESTFIELD      CLOUDY    70  60  70 SE6       30.03R
PROVINCETOWN   MOCLDY    55  52  88 MISG      30.06S
NANTUCKET      PTCLDY    63  60  90 NE8       30.03S
$$

ANZ330-335-338-340-345-350-353-355-210400-
COASTAL MARINE OBSERVATIONS


STATION/POSITION TIME  SKY/WX   TEMP    WIND        PRES    VSBY  WAVE
                                AIR SEA DIR/SP/G                  HT/PER
                 (UTC)          (F)     (DEG/KT/KT) (MB)    (MI)  (FT/S)
NY HARB ENTRANCE NOT AVBL
4S FIRE IS       NOT AVBL
23SW MTP         0300            68 70              1016.7          2/ 5
HUDSON CANYON    0300            71 73   40/  8/ 10 1015.9          3/ 6
EXECUTION ROCKS  0300            72 74  160/  4/  4   N/A
WESTERN LI SOUND 0300            71     170/  4/  6   N/A           0
CENTRAL LI SOUND 0200            71 73  160/  4/  6   N/A           1
EASTERN LI SOUND 0200            68 68  100/  4/  6   N/A
ROBBINS REEF     0300            72     180/  8/  9   N/A
$$


>>>>>>>>>>>>>>>>>>>>>>>>>>>> KEY <<<<<<<<<<<<<<<<<<<<<<<<<<<
>                                                          <
>     SKY/WX - SKY CONDITION/PRESENT WEATHER               <
>     TMP    - TEMPERATURE IN FAHRENHEIT                   <
>     DP     - DEWPOINT IN FAHRENHEIT                      <
>     RH     - RELATIVE HUMIDITY IN PERCENT                <
>     WIND   - DIRECTION AND SPEED IN MPH                  <
>     PRES   - MEAN SEA LEVEL PRESSURE IN INCHES OF HG     <
>     WCI    - WIND CHILL INDEX                            <
>     VSB    - VISIBILITY IN MILES                         <
>     HX     - HEAT INDEX                                  <
>     TC     - TEMPERATURE IN CELSIUS                      <
>     VRB    - VARIABLE WIND DIRECTION                     <
>                                                          <
>>>>>>>>>>>>>>>>>>>>>>>>>>>> KEY <<<<<<<<<<<<<<<<<<<<<<<<<<<





USA.gov is the U.S. government's official web portal to all federal, state and local government web resources and services.